Regional Weather Roundup
Issued by NWS

Home | Current Version | Previous Version | Text Only | Print | Product List | Glossary Off
Versions: 1 2 3 4 5 6 7 8 9 10 11 12 13 14 15 16 17 18 19 20 21 22 23 24 25 26 27 28 29 30 31 32 33 34 35 36 37 38 39 40 41 42 43 44 45 46 47 48 49 50

725
ASUS44 KLIX 301010
RWRLA
LOUISIANA WEATHER ROUNDUP
NATIONAL WEATHER SERVICE NEW ORLEANS LA
500 AM CDT TUE SEP 30 2014

NOTE: "FAIR" INDICATES FEW OR NO CLOUDS BELOW 12,000 FEET WITH NO
      SIGNIFICANT WEATHER AND/OR OBSTRUCTIONS TO VISIBILITY.
      SKY/WX - SKY CONDITION AND SIGNIFICANT WEATHER.
      TMP - AIR TEMPERATURE.    DP   - DEWPOINT TEMPERATURE.
      RH  - RELATIVE HUMIDITY.  PRES - PRESSURE.
      HX  - HEAT INDEX.         WCI  - WIND CHILL INDEX.

*  THESE STATIONS ARE NOT NWS OR FAA STATIONS AND ARE NOT UNDER
   NWS QUALITY CONTROL.

LAZ040-048-061>063-065-066-069-301100-
SOUTHEAST LOUISIANA

CITY           SKY/WX    TMP DP  RH WIND       PRES   REMARKS
N.O. AUDUBON   NOT AVBL
N.O. INTL ARPT PTCLDY    75  72  90 NE6       29.87R
N.O. LAKEFRONT CLEAR     77  73  87 NE6       29.87S
N.O. DOWNTOWN* FAIR      75  70  83 N5        29.87S
SLIDELL        PTCLDY    68  66  93 N3        29.87S
BATON ROUGE    CLEAR     70  69  97 CALM      29.87S
BOOTHVILLE     CLEAR     77  74  90 N3        29.86R
BELLE CHASSE   CLEAR     70  67  90 CALM      29.86S
BOGALUSA*        N/A     70  67  90 CALM      29.90S FOG
GALLIANO*      NOT AVBL
NEW ROADS*     CLOUDY    69  68  98 CALM      29.88S FOG
GONZALES*      FAIR      70  70 100 CALM      29.87S
HAMMOND*       CLEAR     70  68  94 CALM      29.89S
HOUMA*         CLEAR    N/A N/A N/A CALM      29.87R FOG
PORT FOURCHON* SUNNY     77  75  94 N3        29.89S

$$

LAZ041-044-053-054-301100-
SOUTHWEST LOUISIANA

CITY           SKY/WX    TMP DP  RH WIND       PRES   REMARKS
LAKE CHARLES   CLEAR     72  71  97 E3        29.87R
LAFAYETTE      CLEAR     72  71  97 CALM      29.87S FOG
PATTERSON      PTCLDY    70  70 100 CALM      29.89S
SALT POINT       N/A     76  73  91 CALM      29.86S
NEW IBERIA     FOG       72  70  93 N3        29.88S VSB 1
CHENAULT AIRPK NOT AVBL

$$

LAZ027-028-301100-
CENTRAL LOUISIANA

CITY           SKY/WX    TMP DP  RH WIND       PRES   REMARKS
FORT POLK      CLEAR     69  68  95 N1        29.88R
ALEXANDRIA INT CLEAR     68  67  96 CALM      29.87R FOG
ALEXANDRIA     PTCLDY    67  66  97 CALM      29.89R FOG

$$

LAZ001-002-301100-
NORTHWEST LOUISIANA

CITY           SKY/WX    TMP DP  RH WIND       PRES   REMARKS
SHREVEPORT     CLOUDY    72  65  78 CALM      29.89S
BARKSDALE AFB  CLOUDY    71  64  80 N3        29.90R
DTN SHREVEPORT CLOUDY    71  32  23 N3        29.90R

$$

LAZ014-016-301100-
NORTHEAST LOUISIANA

CITY           SKY/WX    TMP DP  RH WIND       PRES   REMARKS
MONROE         CLEAR     66  63  90 CALM      29.91R
TALLULAH       CLEAR     66  64  93 NE3       29.89S

$$




USA.gov is the U.S. government's official web portal to all federal, state and local government web resources and services.